"Period start","avg(HW err(1)/warn(2) (#))","avg(Visibility (m))","avg(Weather code (#))","avg(Precip intensity (mm/h))","min(HW err(1)/warn(2) (#))","max(HW err(1)/warn(2) (#))","std(HW err(1)/warn(2) (#))","med(HW err(1)/warn(2) (#))","min(Visibility (m))","max(Visibility (m))","std(Visibility (m))","med(Visibility (m))","min(Weather code (#))","max(Weather code (#))","std(Weather code (#))","med(Weather code (#))","min(Precip intensity (mm/h))","max(Precip intensity (mm/h))","std(Precip intensity (mm/h))","med(Precip intensity (mm/h))"
2016-07-17 00:00:00,2,4412,4,0.00,2,2,0,2,943,11833,3605,2594,4,4,0,4,0.00,0.00,0.00,0.00
2016-07-17 00:10:00,2,1338,4,0.00,2,2,0,2,552,2966,755,974,4,5,0,4,0.00,0.00,0.00,0.00
2016-07-17 00:20:00,2,15458,4,0.00,2,2,0,2,959,37419,11895,18610,4,5,0,4,0.00,0.00,0.00,0.00
2016-07-17 00:30:00,2,40321,2,0.00,2,2,0,2,26251,50000,8470,40713,0,4,2,0,0.00,0.00,0.00,0.00
2016-07-17 00:40:00,2,34525,0,0.00,2,2,0,2,18884,50000,10186,35292,0,0,0,0,0.00,0.00,0.00,0.00
2016-07-17 00:50:00,2,44377,0,0.00,2,2,0,2,31481,50000,6536,46788,0,0,0,0,0.00,0.00,0.00,0.00
2016-07-17 01:00:00,2,47568,0,0.00,2,2,0,2,41519,50000,3229,49750,0,0,0,0,0.00,0.00,0.00,0.00
2016-07-17 01:10:00,2,37142,0,0.00,2,2,0,2,20253,50000,9011,39049,0,0,0,0,0.00,0.00,0.00,0.00
2016-07-17 01:20:00,2,36611,0,0.00,2,2,0,2,24073,45313,6668,37397,0,0,0,0,0.00,0.00,0.00,0.00
2016-07-17 01:30:00,2,38018,0,0.00,2,2,0,2,20159,50000,9946,38720,0,0,0,0,0.00,0.00,0.00,0.00
2016-07-17 01:40:00,2,44495,0,0.00,2,2,0,2,25099,50000,7476,48257,0,0,0,0,0.00,0.00,0.00,0.00
2016-07-17 01:50:00,2,40650,0,0.00,2,2,0,2,29470,50000,6265,40421,0,0,0,0,0.00,0.00,0.00,0.00
2016-07-17 02:00:00,2,41435,0,0.00,2,2,0,2,29048,50000,7593,44188,0,0,0,0,0.00,0.00,0.00,0.00
2016-07-17 02:10:00,2,45601,0,0.00,2,2,0,2,28926,50000,6009,47704,0,0,0,0,0.00,0.00,0.00,0.00
2016-07-17 02:20:00,2,24919,0,0.00,2,2,0,2,5074,50000,17430,24126,0,0,0,0,0.00,0.00,0.00,0.00
2016-07-17 02:30:00,2,14731,4,0.00,2,2,0,2,2784,28369,9433,13522,0,4,1,4,0.00,0.00,0.00,0.00
2016-07-17 02:40:00,2,34979,2,0.00,2,2,0,2,19779,50000,10739,31038,0,4,2,2,0.00,0.00,0.00,0.00
2016-07-17 02:50:00,2,26470,0,0.00,2,2,0,2,10866,37694,8902,27292,0,0,0,0,0.00,0.00,0.00,0.00
2016-07-17 03:00:00,2,34776,0,0.00,2,2,0,2,10018,50000,12710,35277,0,0,0,0,0.00,0.00,0.00,0.00
2016-07-17 03:10:00,2,38355,0,0.00,2,2,0,2,23071,50000,7922,38360,0,0,0,0,0.00,0.00,0.00,0.00
2016-07-17 03:20:00,2,35203,0,0.00,2,2,0,2,26192,50000,7130,34186,0,0,0,0,0.00,0.00,0.00,0.00
2016-07-17 03:30:00,2,37058,0,0.00,2,2,0,2,25879,46253,6811,37048,0,0,0,0,0.00,0.00,0.00,0.00
2016-07-17 03:40:00,2,17226,0,0.00,2,2,0,2,4544,31130,8627,15621,0,0,0,0,0.00,0.00,0.00,0.00
2016-07-17 03:50:00,2,18552,1,0.00,2,2,0,2,3474,37851,11801,16526,0,4,2,0,0.00,0.00,0.00,0.00
2016-07-17 04:00:00,2,6634,4,0.00,2,2,0,2,2303,14243,3995,5276,4,4,0,4,0.00,0.00,0.00,0.00
2016-07-17 04:10:00,2,3554,4,0.00,2,2,0,2,1591,6502,1782,3022,4,4,0,4,0.00,0.00,0.00,0.00
2016-07-17 04:20:00,2,2337,4,0.00,2,2,0,2,759,4221,1205,1889,4,4,0,4,0.00,0.00,0.00,0.00
2016-07-17 04:30:00,2,31462,4,0.00,2,2,0,2,8372,50000,15532,35156,4,4,0,4,0.00,0.00,0.00,0.00
2016-07-17 04:40:00,2,30098,0,0.00,2,2,0,2,6609,46898,13862,31954,0,0,0,0,0.00,0.00,0.00,0.00
2016-07-17 04:50:00,2,48412,0,0.00,2,2,0,2,44079,50000,2401,49982,0,0,0,0,0.00,0.00,0.00,0.00
2016-07-17 05:00:00,2,45483,0,0.00,2,2,0,2,40024,50000,3831,46164,0,0,0,0,0.00,0.00,0.00,0.00
2016-07-17 05:10:00,2,49451,0,0.00,2,2,0,2,47708,50000,779,49886,0,0,0,0,0.00,0.00,0.00,0.00
2016-07-17 05:20:00,2,48422,0,0.00,2,2,0,2,43498,50000,2371,50000,0,0,0,0,0.00,0.00,0.00,0.00
2016-07-17 05:30:00,2,46872,0,0.00,2,2,0,2,39380,50000,4173,49524,0,0,0,0,0.00,0.00,0.00,0.00
2016-07-17 05:40:00,2,49340,0,0.00,2,2,0,2,47607,50000,886,49976,0,0,0,0,0.00,0.00,0.00,0.00
2016-07-17 05:50:00,2,47889,0,0.00,2,2,0,2,35128,50000,4326,49470,0,0,0,0,0.00,0.00,0.00,0.00
2016-07-17 06:00:00,2,48589,0,0.00,2,2,0,2,39704,50000,3059,50000,0,0,0,0,0.00,0.00,0.00,0.00
2016-07-17 06:10:00,2,48985,0,0.00,2,2,0,2,44636,50000,1641,50000,0,0,0,0,0.00,0.00,0.00,0.00
2016-07-17 06:20:00,2,50000,0,0.00,2,2,0,2,50000,50000,0,50000,0,0,0,0,0.00,0.00,0.00,0.00
2016-07-17 06:30:00,2,47501,0,0.00,2,2,0,2,39959,50000,3629,50000,0,0,0,0,0.00,0.00,0.00,0.00
2016-07-17 06:40:00,2,46047,0,0.00,2,2,0,2,27513,50000,6910,49134,0,0,0,0,0.00,0.00,0.00,0.00
2016-07-17 06:50:00,2,48474,0,0.00,2,2,0,2,44291,50000,2007,49448,0,0,0,0,0.00,0.00,0.00,0.00
2016-07-17 07:00:00,2,45684,0,0.00,2,2,0,2,31906,50000,6278,48842,0,0,0,0,0.00,0.00,0.00,0.00
2016-07-17 07:10:00,2,49696,0,0.00,2,2,0,2,47479,50000,755,50000,0,0,0,0,0.00,0.00,0.00,0.00
2016-07-17 07:20:00,2,46859,0,0.00,0,2,1,2,32739,50000,6047,50000,0,0,0,0,0.00,0.00,0.00,0.00
2016-07-17 07:30:00,2,47624,0,0.00,2,2,0,2,40717,50000,3316,50000,0,0,0,0,0.00,0.00,0.00,0.00
2016-07-17 07:40:00,2,49583,0,0.00,0,2,1,2,47192,50000,895,50000,0,0,0,0,0.00,0.00,0.00,0.00
2016-07-17 07:50:00,2,47000,0,0.00,2,2,0,2,36781,50000,4392,49702,0,0,0,0,0.00,0.00,0.00,0.00
2016-07-17 08:00:00,2,45310,0,0.00,2,2,0,2,18425,50000,9163,48700,0,0,0,0,0.00,0.00,0.00,0.00
2016-07-17 08:10:00,2,48993,0,0.00,2,2,0,2,44556,50000,1918,50000,0,0,0,0,0.00,0.00,0.00,0.00
2016-07-17 08:20:00,2,42322,0,0.00,2,2,0,2,18694,50000,10578,47428,0,0,0,0,0.00,0.00,0.00,0.00
2016-07-17 08:30:00,2,36834,0,0.00,2,2,0,2,13162,50000,14835,45828,0,0,0,0,0.00,0.00,0.00,0.00
2016-07-17 08:40:00,2,42611,0,0.00,2,2,0,2,10755,50000,11503,47328,0,0,0,0,0.00,0.00,0.00,0.00
2016-07-17 08:50:00,2,47672,0,0.00,2,2,0,2,40730,50000,2891,48719,0,0,0,0,0.00,0.00,0.00,0.00
2016-07-17 09:00:00,2,47518,0,0.00,2,2,0,2,42788,50000,2858,49036,0,0,0,0,0.00,0.00,0.00,0.00
2016-07-17 09:10:00,2,46939,0,0.00,2,2,0,2,32777,50000,5273,50000,0,0,0,0,0.00,0.00,0.00,0.00
2016-07-17 09:20:00,2,50000,0,0.00,2,2,0,2,50000,50000,0,50000,0,0,0,0,0.00,0.00,0.00,0.00
2016-07-17 09:30:00,2,49869,0,0.00,2,2,0,2,48721,50000,383,50000,0,0,0,0,0.00,0.00,0.00,0.00
2016-07-17 09:40:00,2,48772,0,0.00,2,2,0,2,44326,50000,1975,50000,0,0,0,0,0.00,0.00,0.00,0.00
2016-07-17 09:50:00,2,48797,0,0.00,2,2,0,2,40212,50000,2910,50000,0,0,0,0,0.00,0.00,0.00,0.00
2016-07-17 10:00:00,2,50000,0,0.00,2,2,0,2,50000,50000,0,50000,0,0,0,0,0.00,0.00,0.00,0.00
2016-07-17 10:10:00,2,48561,0,0.00,2,2,0,2,42366,50000,2629,50000,0,0,0,0,0.00,0.00,0.00,0.00
2016-07-17 10:20:00,2,47070,0,0.00,2,2,0,2,29212,50000,6291,50000,0,0,0,0,0.00,0.00,0.00,0.00
2016-07-17 10:30:00,2,49997,0,0.00,2,2,0,2,49969,50000,9,50000,0,0,0,0,0.00,0.00,0.00,0.00
2016-07-17 10:40:00,2,49905,0,0.00,2,2,0,2,49048,50000,286,50000,0,0,0,0,0.00,0.00,0.00,0.00
2016-07-17 10:50:00,2,48977,0,0.00,2,2,0,2,45242,50000,1711,50000,0,0,0,0,0.00,0.00,0.00,0.00
2016-07-17 11:00:00,2,50000,0,0.00,2,2,0,2,50000,50000,0,50000,0,0,0,0,0.00,0.00,0.00,0.00
2016-07-17 11:10:00,2,49149,0,0.00,2,2,0,2,47073,50000,1112,50000,0,0,0,0,0.00,0.00,0.00,0.00
2016-07-17 11:20:00,2,48375,0,0.00,2,2,0,2,38344,50000,3529,50000,0,0,0,0,0.00,0.00,0.00,0.00
2016-07-17 11:30:00,2,50000,0,0.00,2,2,0,2,50000,50000,0,50000,0,0,0,0,0.00,0.00,0.00,0.00
2016-07-17 11:40:00,2,50000,0,0.00,2,2,0,2,50000,50000,0,50000,0,0,0,0,0.00,0.00,0.00,0.00
2016-07-17 11:50:00,2,50000,0,0.00,2,2,0,2,50000,50000,0,50000,0,0,0,0,0.00,0.00,0.00,0.00
2016-07-17 12:00:00,2,49917,0,0.00,2,2,0,2,49173,50000,248,50000,0,0,0,0,0.00,0.00,0.00,0.00
2016-07-17 12:10:00,2,49994,0,0.00,2,2,0,2,49938,50000,19,50000,0,0,0,0,0.00,0.00,0.00,0.00
2016-07-17 12:20:00,2,50000,0,0.00,2,2,0,2,50000,50000,0,50000,0,0,0,0,0.00,0.00,0.00,0.00
2016-07-17 12:30:00,2,50000,0,0.00,2,2,0,2,50000,50000,0,50000,0,0,0,0,0.00,0.00,0.00,0.00
2016-07-17 12:40:00,1,50000,0,0.00,0,2,1,1,50000,50000,0,50000,0,0,0,0,0.00,0.00,0.00,0.00
2016-07-17 12:50:00,0,50000,0,0.00,0,0,0,0,50000,50000,0,50000,0,0,0,0,0.00,0.00,0.00,0.00
2016-07-17 13:00:00,0,50000,0,0.00,0,0,0,0,50000,50000,0,50000,0,0,0,0,0.00,0.00,0.00,0.00
2016-07-17 13:10:00,0,50000,0,0.00,0,0,0,0,50000,50000,0,50000,0,0,0,0,0.00,0.00,0.00,0.00
2016-07-17 13:20:00,0,50000,0,0.00,0,0,0,0,50000,50000,0,50000,0,0,0,0,0.00,0.00,0.00,0.00
2016-07-17 13:30:00,0,50000,0,0.00,0,0,0,0,50000,50000,0,50000,0,0,0,0,0.00,0.00,0.00,0.00
2016-07-17 13:40:00,0,50000,0,0.00,0,0,0,0,50000,50000,0,50000,0,0,0,0,0.00,0.00,0.00,0.00
2016-07-17 13:50:00,0,49942,0,0.00,0,0,0,0,49419,50000,174,50000,0,0,0,0,0.00,0.00,0.00,0.00
2016-07-17 14:00:00,0,50000,0,0.00,0,0,0,0,50000,50000,0,50000,0,0,0,0,0.00,0.00,0.00,0.00
2016-07-17 14:10:00,0,50000,0,0.00,0,0,0,0,50000,50000,0,50000,0,0,0,0,0.00,0.00,0.00,0.00
2016-07-17 14:20:00,2,50000,0,0.00,0,2,1,2,50000,50000,0,50000,0,0,0,0,0.00,0.00,0.00,0.00
2016-07-17 14:30:00,2,50000,0,0.00,2,2,0,2,50000,50000,0,50000,0,0,0,0,0.00,0.00,0.00,0.00
2016-07-17 14:40:00,2,50000,0,0.00,2,2,0,2,50000,50000,0,50000,0,0,0,0,0.00,0.00,0.00,0.00
2016-07-17 14:50:00,2,50000,0,0.00,2,2,0,2,50000,50000,0,50000,0,0,0,0,0.00,0.00,0.00,0.00
2016-07-17 15:00:00,2,50000,0,0.00,2,2,0,2,50000,50000,0,50000,0,0,0,0,0.00,0.00,0.00,0.00
2016-07-17 15:10:00,2,50000,0,0.00,2,2,0,2,50000,50000,0,50000,0,0,0,0,0.00,0.00,0.00,0.00
2016-07-17 15:20:00,2,50000,0,0.00,2,2,0,2,50000,50000,0,50000,0,0,0,0,0.00,0.00,0.00,0.00
2016-07-17 15:30:00,0,50000,0,0.00,0,0,0,0,50000,50000,0,50000,0,0,0,0,0.00,0.00,0.00,0.00
2016-07-17 15:40:00,0,50000,0,0.00,0,0,0,0,50000,50000,0,50000,0,0,0,0,0.00,0.00,0.00,0.00
2016-07-17 15:50:00,1,50000,0,0.00,0,2,1,0,50000,50000,0,50000,0,0,0,0,0.00,0.00,0.00,0.00
2016-07-17 16:00:00,2,50000,0,0.00,2,2,0,2,50000,50000,0,50000,0,0,0,0,0.00,0.00,0.00,0.00
2016-07-17 16:10:00,2,50000,0,0.00,2,2,0,2,50000,50000,0,50000,0,0,0,0,0.00,0.00,0.00,0.00
2016-07-17 16:20:00,2,50000,0,0.00,2,2,0,2,50000,50000,0,50000,0,0,0,0,0.00,0.00,0.00,0.00
2016-07-17 16:30:00,2,50000,0,0.00,2,2,0,2,50000,50000,0,50000,0,0,0,0,0.00,0.00,0.00,0.00
2016-07-17 16:40:00,2,50000,0,0.00,2,2,0,2,50000,50000,0,50000,0,0,0,0,0.00,0.00,0.00,0.00
2016-07-17 16:50:00,2,50000,0,0.00,2,2,0,2,50000,50000,0,50000,0,0,0,0,0.00,0.00,0.00,0.00
2016-07-17 17:00:00,2,50000,0,0.00,2,2,0,2,50000,50000,0,50000,0,0,0,0,0.00,0.00,0.00,0.00
2016-07-17 17:10:00,0,50000,0,0.00,0,2,1,0,50000,50000,0,50000,0,0,0,0,0.00,0.00,0.00,0.00
2016-07-17 17:20:00,0,50000,0,0.00,0,0,0,0,50000,50000,0,50000,0,0,0,0,0.00,0.00,0.00,0.00
2016-07-17 17:30:00,0,49751,0,0.00,0,0,0,0,48745,50000,420,50000,0,0,0,0,0.00,0.00,0.00,0.00
2016-07-17 17:40:00,0,50000,0,0.00,0,0,0,0,50000,50000,0,50000,0,0,0,0,0.00,0.00,0.00,0.00
2016-07-17 17:50:00,0,49905,0,0.00,0,0,0,0,49047,50000,286,50000,0,0,0,0,0.00,0.00,0.00,0.00
2016-07-17 18:00:00,0,50000,0,0.00,0,0,0,0,50000,50000,0,50000,0,0,0,0,0.00,0.00,0.00,0.00
2016-07-17 18:10:00,0,50000,0,0.00,0,0,0,0,50000,50000,0,50000,0,0,0,0,0.00,0.00,0.00,0.00
2016-07-17 18:20:00,0,49932,0,0.00,0,0,0,0,49318,50000,205,50000,0,0,0,0,0.00,0.00,0.00,0.00
2016-07-17 18:30:00,0,47917,0,0.00,0,0,0,0,38530,50000,3639,50000,0,0,0,0,0.00,0.00,0.00,0.00
2016-07-17 18:40:00,0,48492,0,0.00,0,0,0,0,42746,50000,2557,50000,0,0,0,0,0.00,0.00,0.00,0.00
2016-07-17 18:50:00,0,49549,0,0.00,0,0,0,0,47078,50000,901,50000,0,0,0,0,0.00,0.00,0.00,0.00
2016-07-17 19:00:00,0,46757,0,0.00,0,0,0,0,42131,50000,2557,46862,0,0,0,0,0.00,0.00,0.00,0.00
2016-07-17 19:10:00,0,48502,0,0.00,0,0,0,0,45846,50000,1547,49022,0,0,0,0,0.00,0.00,0.00,0.00
2016-07-17 19:20:00,0,49888,0,0.00,0,0,0,0,48938,50000,317,50000,0,0,0,0,0.00,0.00,0.00,0.00
2016-07-17 19:30:00,0,48834,0,0.00,0,0,0,0,43155,50000,2111,50000,0,0,0,0,0.00,0.00,0.00,0.00
2016-07-17 19:40:00,0,47558,0,0.00,0,0,0,0,39211,50000,3378,49217,0,0,0,0,0.00,0.00,0.00,0.00
2016-07-17 19:50:00,0,49311,0,0.00,0,0,0,0,47371,50000,1038,50000,0,0,0,0,0.00,0.00,0.00,0.00
2016-07-17 20:00:00,0,49126,0,0.00,0,0,0,0,43662,50000,1957,50000,0,0,0,0,0.00,0.00,0.00,0.00
2016-07-17 20:10:00,0,49272,0,0.00,0,0,0,0,46484,50000,1124,49856,0,0,0,0,0.00,0.00,0.00,0.00
2016-07-17 20:20:00,0,48831,0,0.00,0,0,0,0,45627,50000,1438,49558,0,0,0,0,0.00,0.00,0.00,0.00
2016-07-17 20:30:00,0,48268,0,0.00,0,0,0,0,43223,50000,2365,49706,0,0,0,0,0.00,0.00,0.00,0.00
2016-07-17 20:40:00,0,50000,0,0.00,0,0,0,0,50000,50000,0,50000,0,0,0,0,0.00,0.00,0.00,0.00
2016-07-17 20:50:00,0,49135,0,0.00,0,0,0,0,44003,50000,1780,50000,0,0,0,0,0.00,0.00,0.00,0.00
2016-07-17 21:00:00,0,48879,0,0.00,0,0,0,0,44591,50000,2131,50000,0,0,0,0,0.00,0.00,0.00,0.00
2016-07-17 21:10:00,0,49207,0,0.00,0,0,0,0,45913,50000,1262,50000,0,0,0,0,0.00,0.00,0.00,0.00
2016-07-17 21:20:00,0,48369,0,0.00,0,0,0,0,45043,50000,1889,49322,0,0,0,0,0.00,0.00,0.00,0.00
2016-07-17 21:30:00,0,49290,0,0.00,0,0,0,0,46987,50000,1127,50000,0,0,0,0,0.00,0.00,0.00,0.00
2016-07-17 21:40:00,0,46875,0,0.00,0,0,0,0,41272,50000,2739,46962,0,0,0,0,0.00,0.00,0.00,0.00
2016-07-17 21:50:00,0,47834,0,0.00,0,0,0,0,43898,50000,2293,48462,0,0,0,0,0.00,0.00,0.00,0.00
2016-07-17 22:00:00,0,47576,0,0.00,0,0,0,0,42854,50000,2670,48522,0,0,0,0,0.00,0.00,0.00,0.00
2016-07-17 22:10:00,0,44204,0,0.00,0,0,0,0,37352,50000,4663,42806,0,0,0,0,0.00,0.00,0.00,0.00
2016-07-17 22:20:00,0,48722,0,0.00,0,0,0,0,40991,50000,2651,50000,0,0,0,0,0.00,0.00,0.00,0.00
2016-07-17 22:30:00,1,46399,0,0.00,0,2,1,1,36511,50000,4258,47831,0,0,0,0,0.00,0.00,0.00,0.00
2016-07-17 22:40:00,2,41257,0,0.00,2,2,0,2,31802,50000,5784,41436,0,0,0,0,0.00,0.00,0.00,0.00
2016-07-17 22:50:00,2,43953,0,0.00,2,2,0,2,36041,50000,4249,44282,0,0,0,0,0.00,0.00,0.00,0.00
2016-07-17 23:00:00,2,39259,0,0.00,2,2,0,2,29669,47317,4997,39385,0,0,0,0,0.00,0.00,0.00,0.00
2016-07-17 23:10:00,2,41831,0,0.00,2,2,0,2,22455,50000,9779,47008,0,0,0,0,0.00,0.00,0.00,0.00
2016-07-17 23:20:00,2,40488,0,0.00,2,2,0,2,28656,50000,7305,40730,0,0,0,0,0.00,0.00,0.00,0.00
2016-07-17 23:30:00,2,42072,0,0.00,2,2,0,2,29697,50000,8110,44900,0,0,0,0,0.00,0.00,0.00,0.00
2016-07-17 23:40:00,2,48342,0,0.00,2,2,0,2,42928,50000,2602,50000,0,0,0,0,0.00,0.00,0.00,0.00
2016-07-17 23:50:00,2,42868,0,0.00,2,2,0,2,30599,50000,6065,43888,0,0,0,0,0.00,0.00,0.00,0.00
